Location: Bourg-d�Oueil
(42.8588°N, 0.4991°E)
Time: 15:01:37
(UTC+00:00)

In-Cosmos 22 - Pass Details

Date: 16 June 2021
Orbit: 786 x 876 km, 81.2° (Epoch: 31 July)

Event Time Altitude Azimuth Distance (km) Brightness Sun altitude
Exits shadow 21:00:01 - 185° (S) 2,782 6.5 -12.0°
Reaches altitude 10° 21:01:07 10° 184° (S) 2,345 6.1 -12.2°
Maximum altitude 21:06:24 81° 98° (E) 802 4.0 -12.8°
Drops below altitude 10° 21:11:42 10° 12° (NNE) 2,357 7.1 -13.4°
Sets 21:14:05 0° 12° (NNE) 3,295 7.9 -13.7°
